Location: Christian Reformed Church
(43.0975°N, 93.8113°W)
Time: 17:33:43
(UTC+00:00)

MOS 1 Rocket - Pass Details

Date: 13 December 2025
Orbit: 609 x 814 km, 97.4° (Epoch: 15 January)

Event Time Altitude Azimuth Distance (km) Brightness Sun altitude
Rises 23:38:23 0° 153° (SSE) 3,119 6.6 -10.2°
Reaches altitude 10° 23:40:38 10° 149° (SSE) 2,234 5.8 -10.6°
Maximum altitude 23:45:27 55° 73° (ENE) 919 3.6 -11.4°
Drops below altitude 10° 23:50:32 10° 356° (N) 2,362 5.9 -12.3°
Sets 23:52:58 0° 353° (N) 3,315 6.7 -12.7°
